Date,TemperatureHighF,TemperatureAvgF,TemperatureLowF,DewpointHighF,DewpointAvgF,DewpointLowF,HumidityHigh,HumidityAvg,HumidityLow,PressureMaxIn,PressureMinIn,WindSpeedMaxMPH,WindSpeedAvgMPH,GustSpeedMaxMPH,PrecipitationSumIn
2013-1-1,29,23,15,19,14,1,77,66,50,30.16,30.05,17,7,17,0.00
2013-1-2,28,17,8,26,4,-2,97,56,39,30.20,30.11,10,3,10,0.00
2013-1-3,32,26,16,24,16,5,78,66,54,30.24,30.09,20,5,20,0.00
2013-1-4,34,24,14,22,15,6,75,69,52,30.23,30.14,16,4,16,0.00
2013-1-5,38,29,18,32,24,13,94,80,56,30.25,29.98,10,3,10,0.00
2013-1-6,36,30,21,31,23,16,87,74,64,30.32,29.91,25,6,25,0.02
2013-1-7,39,27,16,25,19,11,86,73,45,30.34,30.12,11,4,11,0.00
2013-1-8,44,33,24,31,25,19,85,73,56,30.18,30.06,7,3,7,0.00
2013-1-9,51,40,27,35,25,12,81,57,25,30.49,29.91,32,7,32,0.00
2013-1-10,43,35,24,41,27,16,99,75,55,30.49,29.92,11,3,11,0.43
2013-1-11,53,50,42,52,48,41,99,94,84,29.92,29.69,17,4,17,0.22
2013-1-12,58,48,34,49,42,31,90,79,60,29.95,29.77,21,6,21,0.20
2013-1-13,35,28,15,34,24,5,96,86,63,30.22,29.83,17,4,17,0.08
2013-1-14,26,17,12,15,8,4,81,69,55,30.43,30.21,0,0,0,0.00
2013-1-15,32,20,10,22,13,5,85,73,52,30.40,30.09,0,0,0,0.00
2013-1-16,37,28,15,26,19,11,86,70,46,30.09,29.85,17,2,17,0.00
2013-1-17,34,28,20,28,14,6,81,57,38,30.81,30.03,24,8,24,0.02
2013-1-18,42,30,16,28,19,7,80,63,49,30.40,29.96,14,5,14,0.00
2013-1-19,51,43,35,36,31,13,74,63,38,29.97,29.75,37,8,37,0.87
2013-1-20,34,20,15,15,-1,-5,46,38,29,30.26,29.85,34,10,34,0.17
2013-1-21,17,11,5,5,-7,-18,70,45,27,30.23,30.10,23,10,23,0.01
2013-1-22,12,6,0,-5,-12,-17,49,41,29,30.34,30.22,17,6,18,0.00
2013-1-23,22,17,10,11,0,-8,72,48,32,30.31,30.08,28,6,28,0.00
2013-1-24,23,17,11,12,6,0,78,63,44,30.58,30.23,22,4,22,0.00
2013-1-25,29,23,17,18,11,4,77,60,48,30.36,29.97,21,4,21,0.00
2013-1-26,32,22,17,16,11,6,74,62,47,30.40,30.11,16,4,16,0.00
2013-1-27,35,28,21,34,21,13,95,74,61,30.37,29.95,10,4,10,0.01
2013-1-28,50,45,35,50,44,34,99,98,95,29.95,29.84,11,3,11,0.07
2013-1-29,60,56,45,59,56,44,99,98,90,29.87,29.39,21,6,21,0.83
2013-1-30,54,38,23,53,36,15,99,92,68,29.59,29.18,30,8,30,0.30
2013-1-31,23,16,7,16,4,-7,76,59,47,30.11,29.59,27,14,27,0.09
2013-2-1,17,10,2,9,-3,-10,71,54,45,30.33,30.10,21,7,21,0.00
2013-2-2,26,20,12,20,14,3,86,75,62,30.17,29.96,14,5,16,0.00
2013-2-3,25,17,10,15,7,-3,79,62,47,30.04,29.93,21,6,21,0.00
2013-2-4,31,25,21,23,19,15,85,77,66,30.03,29.82,14,3,14,0.00
2013-2-5,35,27,16,29,21,12,87,78,62,30.05,28.53,17,5,17,0.01
2013-2-6,41,32,22,26,21,13,75,63,46,30.23,30.05,11,3,11,0.00
2013-2-7,49,36,30,37,31,25,98,81,57,30.12,29.81,20,3,20,0.27
2013-2-8,34,30,29,33,27,24,98,87,67,30.35,29.85,27,12,27,0.15
2013-2-9,40,33,28,28,24,21,85,71,55,30.37,30.10,8,3,8,0.00
2013-2-10,50,40,32,48,36,23,99,85,67,30.10,29.55,14,5,14,0.22
2013-2-11,49,35,30,42,24,20,78,64,58,30.01,29.56,34,12,34,0.53
2013-2-12,33,28,20,22,19,16,87,69,63,30.09,29.92,24,5,24,0.00
2013-2-13,50,33,20,32,25,17,92,76,47,29.93,29.71,15,2,15,0.00
2013-2-14,44,37,32,34,27,18,85,69,47,29.96,29.68,24,7,24,0.00
2013-2-15,32,28,24,27,16,5,90,60,37,30.15,29.95,21,6,21,0.00
2013-2-16,24,19,14,18,3,-3,76,50,35,30.14,30.08,23,9,23,0.00
2013-2-17,35,22,10,11,2,-4,59,42,24,30.19,30.04,12,4,12,0.00
2013-2-18,56,40,26,46,30,10,97,67,50,30.05,29.44,27,7,27,0.40
2013-2-19,34,18,14,32,8,0,90,63,54,30.12,29.54,24,6,24,0.78
2013-2-20,26,18,10,15,6,-4,68,58,43,30.31,30.12,20,8,20,0.00
2013-2-21,28,26,24,20,16,14,84,66,58,30.33,29.98,24,7,24,0.01
2013-2-22,35,29,23,33,24,19,91,83,68,29.99,29.82,19,5,19,0.02
2013-2-23,34,28,24,20,17,15,74,65,49,29.95,29.90,16,4,16,0.01
2013-2-24,44,28,17,22,17,10,80,64,37,30.13,29.95,10,2,10,0.04
2013-2-25,47,34,21,29,23,17,89,67,44,30.17,29.94,19,4,19,0.01
2013-2-26,35,34,33,32,28,21,96,80,56,29.94,29.47,30,9,30,0.51
2013-2-27,37,34,33,35,32,31,98,94,85,29.64,29.47,9,1,9,0.37
2013-2-28,37,33,30,34,31,26,98,90,75,30.00,29.63,25,7,25,0.25
2013-3-1,35,31,29,28,24,19,91,75,57,30.12,29.98,21,8,21,0.00
2013-3-2,30,28,26,24,18,14,85,66,56,30.12,30.09,17,8,17,0.01
2013-3-3,34,26,17,18,11,3,74,55,26,30.10,30.05,12,6,12,0.00
2013-3-4,40,33,15,27,21,9,84,63,43,30.11,29.97,14,4,14,0.00
2013-3-5,34,31,28,30,28,25,97,88,69,29.98,29.74,22,8,22,0.00
2013-3-6,35,32,29,31,27,25,96,82,74,30.26,29.90,24,10,24,0.11
2013-3-7,42,34,24,27,23,18,83,67,45,30.39,30.25,11,4,11,0.01
2013-3-8,47,32,20,31,21,17,92,65,37,30.48,30.31,8,2,8,0.00
2013-3-9,45,38,28,34,28,18,77,69,53,30.31,29.87,10,3,10,0.00
2013-3-10,60,47,39,49,42,32,97,82,63,29.88,29.65,7,2,7,0.34
2013-3-11,50,41,33,50,39,29,99,92,82,29.79,29.56,18,4,18,0.06
2013-3-12,40,33,29,30,25,18,95,74,49,29.98,29.78,21,8,21,0.00
2013-3-13,36,29,24,20,13,7,78,52,32,30.30,29.98,25,10,25,0.01
2013-3-14,44,33,23,30,19,9,90,59,33,30.30,30.07,12,3,12,0.00
2013-3-15,51,38,28,41,34,26,99,86,54,30.08,29.71,10,2,10,0.11
2013-3-16,37,34,31,37,30,21,99,86,67,30.09,29.65,25,8,25,0.01
2013-3-17,42,33,30,23,20,16,71,59,46,30.18,29.99,19,7,19,0.00
2013-3-18,36,32,24,34,26,10,91,80,52,29.99,29.59,31,8,31,0.17
2013-3-19,37,28,20,15,11,7,66,50,33,30.05,29.78,30,14,30,0.20
2013-3-20,28,24,18,11,4,-4,72,42,27,30.05,29.99,22,11,22,0.00
2013-3-21,36,25,14,14,6,-1,70,45,28,30.02,29.96,20,7,20,0.00
2013-3-22,48,30,16,24,12,8,81,51,23,30.05,29.97,15,3,15,0.00
2013-3-23,44,33,24,24,20,16,80,61,40,30.11,29.98,17,5,17,0.00
2013-3-24,38,33,29,30,22,19,97,66,47,30.00,29.59,28,12,28,0.00
2013-3-25,38,34,29,29,26,23,97,76,60,30.02,29.63,30,15,30,0.05
2013-3-26,45,36,32,31,26,20,96,67,41,30.22,30.02,17,7,19,0.05
2013-3-27,47,38,31,26,21,13,71,53,30,30.29,30.22,17,5,17,0.00
2013-3-28,55,39,25,23,18,14,76,47,22,30.32,30.25,14,3,14,0.00
2013-3-29,57,42,28,31,19,13,76,43,22,30.30,30.20,17,3,17,0.00
2013-3-30,62,46,27,37,27,14,67,48,30,30.23,29.86,11,2,11,0.00
2013-3-31,62,51,40,45,36,24,97,60,29,29.86,29.69,29,9,29,0.02
2013-4-1,41,35,27,26,16,9,57,45,30,30.14,29.85,22,8,22,0.00
2013-4-2,48,35,24,16,10,3,53,36,22,30.28,30.14,21,6,21,0.00
2013-4-3,47,34,20,25,14,8,80,47,23,30.42,30.28,18,4,18,0.00
2013-4-4,64,45,24,22,18,14,70,38,19,30.32,29.96,13,2,13,0.00
2013-4-5,50,42,34,36,25,13,92,54,27,30.19,29.96,21,10,21,0.00
2013-4-6,73,54,33,45,32,23,69,45,24,30.15,29.65,21,6,21,0.00
2013-4-7,63,53,42,51,43,37,92,71,44,29.95,29.65,26,7,26,0.02
2013-4-8,73,55,44,61,48,38,99,78,52,29.98,29.68,31,7,31,0.33
2013-4-9,83,56,42,63,50,42,99,83,47,29.99,29.80,17,5,17,0.00
2013-4-10,54,43,41,52,43,40,99,98,88,29.94,29.76,22,8,22,0.37
2013-4-11,53,47,42,52,47,42,99,98,97,29.83,29.56,19,5,19,1.22
2013-4-12,48,41,37,42,37,33,99,88,76,29.85,29.59,23,6,23,0.05
2013-4-13,50,40,36,37,32,28,95,74,49,29.99,29.85,23,7,23,0.00
2013-4-14,72,54,39,53,43,33,87,68,46,30.00,29.73,16,4,16,0.00
2013-4-15,71,58,46,59,53,45,99,83,62,29.96,29.74,21,6,21,0.71
2013-4-16,53,47,42,45,40,35,99,78,61,30.24,29.93,15,7,15,0.30
2013-4-17,56,49,44,52,44,36,99,86,72,30.25,29.80,29,7,29,0.78
2013-4-18,70,59,45,67,58,42,99,97,89,29.81,29.47,21,5,21,0.98
2013-4-19,45,39,33,42,33,29,92,79,69,29.90,29.52,27,10,27,0.02
2013-4-20,47,39,32,30,22,13,80,52,30,30.42,29.90,21,8,21,0.00
2013-4-21,58,44,29,32,24,19,73,48,25,30.51,30.34,11,3,11,0.00
2013-4-22,71,55,36,40,34,28,89,50,20,30.34,30.07,11,3,11,0.00
2013-4-23,69,52,38,57,46,38,99,82,55,30.06,29.86,24,6,24,0.51
2013-4-24,53,42,37,38,34,27,99,78,39,30.14,29.88,23,8,23,0.05
2013-4-25,57,45,35,39,33,26,91,66,34,30.33,30.08,24,5,24,0.00
2013-4-26,71,52,32,46,39,30,98,65,36,30.37,30.26,13,3,13,0.00
2013-4-27,74,59,41,53,44,31,99,65,22,30.30,30.00,17,2,17,0.00
2013-4-28,67,57,49,58,54,49,99,90,68,30.00,29.83,14,4,14,0.06
2013-4-29,77,63,44,62,53,43,99,73,45,29.94,29.83,10,3,10,0.00
2013-4-30,89,72,58,62,58,54,88,65,33,29.98,29.85,11,5,11,0.00
2013-5-1,88,75,58,62,58,54,98,60,32,30.14,29.98,11,3,11,0.00
2013-5-2,65,51,42,59,47,41,98,85,68,30.19,30.10,23,10,23,0.00
2013-5-3,42,42,42,41,41,41,97,97,97,30.13,30.13,12,12,17,0.00
2013-5-4,42,42,42,41,41,41,97,97,97,30.13,30.13,12,12,17,0.00
2013-5-5,42,42,42,41,41,41,97,97,97,30.13,30.13,12,12,17,0.00
2013-5-6,74,49,42,47,42,40,97,81,35,30.13,29.90,16,10,17,0.08
2013-5-7,76,62,47,56,48,44,94,63,42,29.99,29.92,14,5,14,0.00
2013-5-8,80,67,50,59,52,47,97,61,33,29.98,29.91,14,4,14,0.00
2013-5-9,84,65,51,62,57,50,99,79,38,29.93,29.77,10,2,10,0.35
2013-5-10,61,48,41,61,48,41,99,99,97,29.91,29.71,24,9,24,0.02
2013-5-11,65,48,40,57,44,34,99,85,56,29.96,29.78,27,5,27,0.06
2013-5-12,56,47,39,38,32,28,91,58,36,30.05,29.96,23,6,23,0.01
2013-5-13,70,54,33,40,32,23,98,49,18,30.12,29.99,14,3,14,0.00
2013-5-14,96,73,51,63,50,32,69,47,25,29.99,29.64,19,4,19,0.00
2013-5-15,85,75,60,63,56,50,84,55,34,29.78,29.62,18,5,18,0.00
2013-5-16,89,71,53,58,50,40,99,54,22,29.92,29.77,14,3,14,0.00
2013-5-17,82,68,57,66,58,46,99,70,47,29.99,29.91,14,2,14,0.09
2013-5-18,86,71,57,67,62,51,99,75,48,30.02,29.91,13,1,13,0.00
2013-5-19,93,77,61,70,65,60,99,69,42,29.93,29.74,14,2,14,0.00
2013-5-20,92,80,70,72,67,60,98,68,36,29.80,29.69,16,4,16,0.01
2013-5-21,86,73,64,71,67,63,99,82,54,29.77,29.64,18,4,18,0.70
2013-5-22,80,70,62,71,65,54,99,84,46,29.71,29.60,16,4,16,0.09
2013-5-23,72,48,41,59,46,37,99,93,72,30.19,29.70,29,11,29,0.44
2013-5-24,57,48,39,44,39,31,99,74,40,30.35,30.18,17,7,17,0.00
2013-5-25,63,50,37,52,44,36,99,82,62,30.33,30.21,9,3,9,0.00
2013-5-26,78,59,42,56,49,42,99,75,39,30.25,30.08,9,2,9,0.05
2013-5-27,66,59,54,63,58,53,99,98,87,30.09,29.81,12,3,12,0.38
2013-5-28,83,70,63,74,67,62,99,91,67,29.86,29.72,34,3,34,0.54
2013-5-29,91,76,63,74,68,62,99,79,52,29.92,29.78,14,3,14,0.07
2013-5-30,86,74,66,74,68,64,99,83,62,29.93,29.89,13,3,13,0.00
2013-5-31,79,70,66,71,67,65,99,92,73,29.89,29.72,6,3,6,0.17
2013-6-1,82,71,61,70,66,60,99,84,62,29.76,29.63,19,4,19,0.21
2013-6-2,65,55,43,63,52,43,99,91,74,29.99,29.68,17,7,17,0.01
2013-6-3,69,57,40,51,45,39,99,69,39,30.06,29.99,57,4,57,0.00
2013-6-4,82,63,44,54,49,44,99,65,29,30.11,30.03,11,2,11,0.00
2013-6-5,86,70,55,60,53,47,90,59,33,30.05,29.86,14,2,14,0.00
2013-6-6,72,63,53,60,53,46,94,71,53,29.87,29.80,17,6,17,0.04
2013-6-7,70,61,52,60,52,41,99,75,45,29.88,29.82,17,6,17,0.00
2013-6-8,83,66,49,59,53,46,99,65,41,29.95,29.85,13,3,13,0.00
2013-6-9,88,73,57,69,60,52,96,67,35,29.96,29.78,11,2,11,0.00
2013-6-10,80,70,61,71,66,60,99,89,66,29.83,29.70,14,4,14,0.30
2013-6-11,90,73,58,75,65,58,99,80,46,29.89,29.77,12,2,12,0.08
2013-6-12,91,76,65,78,72,64,99,88,57,29.87,29.56,20,3,20,2.37
2013-6-13,72,63,56,65,60,55,99,89,65,29.99,29.55,18,8,18,0.07
2013-6-14,76,65,54,65,59,54,99,81,60,30.06,29.95,14,5,14,0.00
2013-6-15,82,68,57,71,65,56,99,92,64,30.03,29.85,8,1,8,0.14
2013-6-16,86,75,66,73,69,66,99,82,55,29.88,29.82,16,4,16,0.07
2013-6-17,92,80,64,72,64,56,99,64,32,29.90,29.81,20,2,20,0.00
2013-6-18,73,65,58,66,61,56,99,86,69,30.00,29.85,17,8,17,0.00
2013-6-19,82,69,57,60,54,50,96,59,37,30.09,29.99,12,4,12,0.00
2013-6-20,92,77,59,70,63,51,96,65,44,30.12,30.04,10,1,10,0.00
2013-6-21,91,78,65,74,68,64,99,75,51,30.12,30.05,21,2,21,0.09
2013-6-22,89,79,68,78,73,67,99,82,67,30.05,29.93,11,2,11,0.00
2013-6-23,91,77,65,76,70,65,99,81,58,30.02,29.92,12,2,12,0.00
2013-6-24,90,76,68,77,71,68,99,85,62,30.04,29.91,14,2,14,0.05
2013-6-26,86,77,66,78,73,66,99,89,74,29.80,29.67,11,2,11,1.59
2013-6-27,93,77,67,76,70,66,99,82,47,29.74,29.64,34,4,34,0.30
2013-6-28,85,73,66,72,66,60,99,80,47,29.66,29.55,26,4,26,0.13
2013-6-29,76,67,64,69,65,63,99,95,75,29.68,29.54,17,6,17,0.01
2013-6-30,75,69,65,67,63,58,99,82,62,29.90,29.68,18,7,18,0.00
2013-7-1,77,70,60,63,56,41,97,62,45,29.99,29.89,22,8,22,0.00
2013-7-2,68,63,61,63,60,54,98,90,63,30.00,29.95,13,6,13,0.08
2013-7-3,80,68,61,72,65,61,99,91,66,30.03,29.94,11,2,11,0.26
2013-7-4,86,72,56,71,65,56,99,80,54,30.08,30.01,7,1,7,0.00
2013-7-5,68,68,68,66,66,66,94,94,94,30.02,30.02,0,0,0,0.00
2013-7-6,68,68,68,66,66,66,94,94,94,30.02,30.02,0,0,0,0.00
2013-7-7,68,68,68,66,66,66,94,94,94,30.02,30.02,0,0,0,0.00
2013-7-8,90,73,68,77,69,66,95,89,62,30.02,29.91,11,1,12,0.46
2013-7-9,88,80,73,80,77,72,99,91,74,29.96,29.85,21,2,21,0.08
2013-7-10,83,78,61,79,75,60,99,91,77,29.96,29.80,5,1,5,0.52
2013-7-11,80,70,59,68,60,55,99,73,44,30.05,29.95,16,4,16,0.00
2013-7-12,86,73,56,68,62,55,99,72,44,30.09,30.03,8,3,8,0.00
2013-7-13,90,76,59,69,65,59,99,71,45,30.12,30.06,9,2,9,0.00
2013-7-14,96,80,67,76,71,67,99,76,47,30.16,30.10,11,2,11,0.00
2013-7-15,98,85,72,80,76,71,99,77,51,30.23,30.16,4,1,4,0.00
2013-7-16,99,88,71,79,76,71,99,68,48,30.28,30.20,8,2,8,0.00
2013-7-17,99,86,71,79,74,70,99,72,46,30.28,30.13,8,2,8,0.00
2013-7-18,99,86,72,80,76,72,99,73,46,30.15,29.94,11,2,11,0.00
2013-7-19,97,87,75,78,75,71,99,71,45,29.94,29.74,17,5,20,0.00
2013-7-20,88,82,72,76,68,57,86,66,40,29.90,29.75,13,5,13,0.00
2013-7-21,94,80,67,73,70,66,99,74,44,29.93,29.81,14,2,14,0.00
2013-7-22,95,80,69,73,70,67,99,76,44,29.84,29.71,9,2,9,0.00
2013-7-23,82,72,64,73,64,52,97,76,63,29.91,29.65,22,8,22,0.00
2013-7-24,73,65,55,56,52,47,99,65,43,30.00,29.89,18,7,18,0.00
2013-7-25,91,70,53,62,57,51,99,68,33,30.07,29.99,10,1,10,0.00
2013-7-26,81,68,59,67,63,58,99,87,57,30.02,29.84,12,2,12,0.00
2013-7-27,72,65,56,66,58,48,99,80,55,29.87,29.80,17,6,17,0.01
2013-7-28,73,60,50,58,52,49,99,76,44,29.98,29.83,16,4,16,0.04
2013-7-29,80,67,55,61,57,52,94,70,48,30.14,29.97,14,4,14,0.00
2013-7-30,85,68,55,68,62,54,99,83,49,30.15,30.03,6,1,6,0.00
2013-7-31,70,69,65,70,68,64,99,98,94,30.03,29.96,4,0,4,0.02
2013-8-1,70,70,70,70,70,70,98,98,98,29.96,29.96,0,0,2,0.02
2013-8-2,87,73,63,76,70,62,99,92,60,29.96,29.83,19,2,19,1.48
2013-8-3,78,71,58,72,63,51,99,79,40,30.10,29.94,17,4,17,0.01
2013-8-4,84,68,56,68,59,56,99,76,52,30.18,30.10,14,3,14,0.00
2013-8-5,82,68,56,70,62,56,99,84,57,30.13,29.91,9,1,9,0.01
2013-8-6,89,73,64,75,69,62,99,90,59,29.92,29.86,8,1,8,0.00
2013-8-7,90,77,67,82,73,67,99,89,64,29.93,29.81,17,2,17,0.50
2013-8-8,82,71,65,69,65,59,99,83,60,30.00,29.93,14,5,14,0.00
2013-8-9,88,74,60,70,64,57,99,75,44,30.03,29.96,10,2,10,0.00
2013-8-10,84,74,62,72,63,56,99,73,43,30.12,30.02,14,3,14,0.00
2013-8-11,89,73,57,69,62,54,99,71,39,30.13,30.04,8,1,8,0.00
2013-8-12,88,75,63,72,68,62,99,81,52,30.06,29.85,18,2,18,0.15
2013-8-13,70,64,54,68,58,50,99,81,53,30.13,29.91,21,7,21,0.01
2013-8-14,73,62,51,61,53,49,99,75,45,30.21,30.12,15,3,15,0.00
2013-8-15,80,65,49,61,56,49,99,76,43,30.18,30.10,9,1,9,0.00
2013-8-16,84,70,57,66,58,51,99,70,38,30.19,30.11,11,2,11,0.00
2013-8-17,84,70,56,65,59,54,99,73,42,30.23,30.16,12,2,12,0.00
2013-8-18,89,72,57,66,62,57,99,73,42,30.20,30.10,10,2,10,0.00
2013-8-19,90,74,58,69,63,58,99,73,42,30.13,30.03,11,1,11,0.00
2013-8-20,91,76,61,74,67,61,99,77,49,30.14,30.06,9,1,9,0.00
2013-8-21,94,79,63,73,68,62,99,74,44,30.11,29.99,10,1,10,0.00
2013-8-22,76,71,65,72,70,65,99,95,83,30.13,29.98,19,4,19,0.48
2013-8-23,86,73,64,72,63,57,99,74,44,30.17,30.08,12,4,12,0.01
2013-8-24,92,74,59,66,61,57,96,67,37,30.27,30.16,8,1,8,0.00
2013-8-25,92,76,58,70,64,58,99,73,43,30.27,30.16,11,1,11,0.00
2013-8-26,92,78,65,76,70,63,99,80,55,30.18,30.03,12,2,12,0.00
2013-8-27,96,84,72,78,74,70,97,74,45,30.03,29.86,14,4,14,0.00
2013-8-28,82,76,70,76,72,68,99,86,65,30.03,29.85,15,7,15,0.00
2013-8-29,92,78,69,81,71,65,99,82,48,30.08,29.98,11,3,11,0.00
2013-8-30,98,80,66,77,71,65,99,78,47,29.99,29.78,23,3,42,0.22
2013-8-31,79,72,69,75,71,68,99,97,87,29.87,29.77,14,3,14,0.32
2013-9-1,89,75,68,76,71,67,99,89,59,29.81,29.73,14,2,14,0.00
2013-9-2,79,71,62,72,66,58,99,84,63,29.97,29.77,16,6,16,0.00
2013-9-3,80,66,57,63,60,56,99,83,49,30.08,29.96,11,2,11,0.00
2013-9-4,88,69,52,67,59,51,99,73,37,30.13,30.04,12,2,12,0.00
2013-9-5,81,68,57,66,58,51,99,75,45,30.23,30.10,14,3,14,0.00
2013-9-6,90,71,54,68,60,51,95,71,41,30.23,30.03,7,1,7,0.00
2013-9-7,91,74,61,72,66,60,99,78,40,30.04,29.89,12,2,12,0.00
2013-9-8,83,73,67,72,69,67,99,88,68,30.01,29.93,15,4,15,0.00
2013-9-9,98,81,65,77,72,64,99,77,48,29.99,29.85,10,2,10,0.00
2013-9-10,99,85,72,73,69,64,97,64,34,30.04,29.91,22,4,22,0.00
2013-9-11,98,80,70,74,72,67,98,80,39,30.06,29.96,20,4,20,0.21
2013-9-12,86,73,64,72,64,48,99,76,30,30.04,29.89,27,6,27,0.01
2013-9-13,67,60,48,57,51,46,99,73,49,30.14,30.03,26,8,26,0.00
2013-9-14,77,58,41,61,45,36,99,68,26,30.19,30.04,8,1,8,0.00
2013-9-15,70,58,48,61,54,46,99,89,65,30.13,29.98,6,1,6,0.14
2013-9-16,68,59,52,57,54,50,99,85,57,30.32,30.13,15,6,15,0.00
2013-9-17,75,60,46,56,52,45,99,78,48,30.33,30.12,10,1,10,0.00
2013-9-18,86,68,57,71,62,53,99,81,50,30.12,29.94,25,1,25,2.28
2013-9-19,80,70,65,75,69,65,99,97,82,30.00,29.84,14,3,14,0.40
2013-9-20,77,70,61,74,66,54,99,88,73,29.86,29.77,17,4,17,0.07
2013-9-21,67,60,50,58,53,47,99,79,52,29.92,29.78,19,7,19,0.00
2013-9-22,70,57,48,62,50,47,99,79,53,30.05,29.92,14,4,14,0.00
2013-9-23,76,62,45,53,49,44,99,66,39,30.11,30.03,9,2,10,0.00
2013-9-24,74,74,74,52,52,52,45,45,45,30.03,30.03,1,1,3,0.00
2013-9-25,74,74,74,52,52,52,45,45,45,30.03,30.03,1,1,3,0.00
2013-9-26,85,72,56,61,54,49,97,56,33,30.03,29.89,8,1,8,0.00
2013-9-27,56,52,52,55,52,51,97,97,95,29.97,29.95,0,0,0,0.00
2013-9-28,52,52,52,51,51,51,97,97,97,29.96,29.96,0,0,0,0.00
2013-9-29,52,52,52,51,51,51,97,97,97,29.96,29.96,0,0,0,0.00
2013-9-30,79,67,56,60,56,47,99,69,41,29.93,29.83,9,2,9,0.30
2013-10-1,81,68,56,69,64,56,99,88,62,29.93,29.85,13,3,13,0.00
2013-10-2,86,70,61,69,62,54,99,78,44,30.02,29.91,10,2,10,0.00
2013-10-3,78,68,60,74,67,60,99,97,83,29.93,29.80,17,2,17,0.73
2013-10-4,89,72,63,75,69,62,99,91,59,29.93,29.85,8,2,8,0.01
2013-10-5,84,71,66,76,69,66,99,95,73,29.90,29.71,11,2,11,0.25
2013-10-6,67,57,44,67,52,43,99,86,53,29.73,29.62,17,4,17,0.38
2013-10-7,67,52,44,51,47,44,99,84,44,30.03,29.69,17,4,17,0.00
2013-10-8,80,58,44,60,50,43,99,78,34,30.13,30.03,6,0,6,0.00
2013-10-9,76,57,43,60,48,43,99,76,36,30.19,30.07,10,1,10,0.00
2013-10-10,79,59,45,60,52,44,99,79,38,30.11,29.99,8,0,8,0.00
2013-10-11,80,60,46,60,51,45,99,76,36,30.04,29.91,9,0,9,0.00
2013-10-12,79,63,50,67,57,50,99,85,54,30.09,29.91,15,2,15,0.01
2013-10-13,64,52,42,56,46,41,99,81,48,30.31,30.09,14,3,14,0.01
2013-10-14,68,52,40,50,45,40,99,80,45,30.31,30.08,14,2,14,0.00
2013-10-15,65,57,49,63,56,47,99,95,82,30.08,29.74,11,2,11,0.13
2013-10-16,56,50,43,50,47,42,99,89,78,29.87,29.80,14,3,14,0.00
2013-10-17,54,49,39,51,47,39,99,94,72,29.86,29.75,21,3,21,0.13
2013-10-18,56,44,37,48,42,36,99,91,73,29.89,29.78,14,3,14,0.01
2013-10-19,46,44,43,43,43,41,98,96,83,29.86,29.79,10,2,11,0.00
2013-10-20,58,45,43,46,43,43,98,95,63,29.94,29.79,12,2,12,0.02
2013-10-21,55,47,32,50,40,26,99,75,53,30.08,29.93,20,5,20,0.04
2013-10-22,47,36,30,38,32,26,99,86,46,30.10,30.00,12,2,12,0.13
2013-10-23,46,40,35,38,32,24,98,75,44,30.12,29.96,22,7,22,0.01
2013-10-24,44,39,36,33,28,22,85,65,44,30.38,30.11,21,6,21,0.00
2013-10-25,51,40,29,32,28,24,85,63,40,30.50,30.21,17,5,17,0.00
2013-10-26,56,46,38,40,33,29,80,61,47,30.22,29.96,28,7,28,0.00
2013-10-27,57,41,28,40,31,27,99,70,36,30.19,30.09,14,2,14,0.00
2013-10-28,62,44,29,46,38,29,99,83,40,30.44,30.17,11,3,11,0.00
2013-10-29,57,46,36,46,40,35,99,83,57,30.47,30.26,8,2,8,0.00
2013-10-30,64,54,41,63,52,41,99,95,82,30.26,26.99,14,1,14,0.79
2013-10-31,64,60,49,63,59,48,99,98,94,29.92,29.35,23,6,23,0.72
2013-11-1,52,48,45,48,44,40,99,87,67,29.85,29.50,28,7,28,0.13
2013-11-2,49,44,41,45,42,37,99,92,68,30.22,29.84,18,6,18,0.09
2013-11-3,54,44,37,46,40,36,99,88,58,30.42,30.22,10,2,10,0.07
2013-11-4,58,49,41,44,41,38,92,74,50,30.42,30.26,15,3,15,0.00
2013-11-5,57,53,50,53,48,44,98,81,72,30.40,30.12,7,2,7,0.00
2013-11-6,57,50,38,55,47,31,99,91,69,30.25,29.93,21,6,21,0.67
2013-11-7,47,38,32,34,29,24,91,69,46,30.35,30.24,21,6,21,0.00
2013-11-8,49,40,29,34,31,25,96,71,50,30.44,30.14,11,4,11,0.00
2013-11-9,61,51,44,42,37,26,70,58,43,30.20,30.00,30,10,30,0.00
2013-11-10,48,41,35,34,29,24,80,62,47,30.42,30.19,24,7,24,0.00
2013-11-11,48,44,41,39,36,32,83,75,62,30.33,30.21,14,4,14,0.01
2013-11-12,44,35,21,39,26,13,91,71,46,30.21,29.88,16,5,16,0.31
2013-11-13,40,29,17,22,18,12,87,65,39,29.88,29.51,13,4,13,0.01
2013-11-14,52,40,30,27,23,18,65,51,35,29.52,29.29,13,4,13,0.01
2013-11-15,52,43,37,37,31,25,80,62,43,29.34,29.28,8,3,11,0.00
2013-11-16,61,52,40,59,49,36,99,90,77,29.29,28.96,13,5,13,0.12
2013-11-17,68,62,53,64,59,44,99,91,64,28.96,28.55,34,8,34,0.66
2013-11-18,45,38,34,37,27,23,84,63,50,29.53,29.05,24,8,24,0.08
2013-11-19,46,36,28,29,26,22,83,68,48,29.65,29.53,15,3,15,0.00
2013-11-20,48,38,29,40,30,24,99,74,48,29.61,29.42,8,3,8,0.11
2013-11-21,51,46,40,47,44,39,99,92,76,29.50,29.43,8,2,8,0.40
2013-11-22,46,38,29,45,34,25,99,87,71,29.75,29.48,23,9,23,0.05
2013-11-23,29,25,21,25,12,4,84,58,43,29.92,29.69,27,12,27,0.21
2013-11-24,28,20,14,8,1,-8,57,44,22,29.98,29.69,15,5,17,0.00
2013-11-25,34,28,19,27,16,4,91,63,43,29.69,29.40,16,4,16,0.00
2013-11-26,36,30,24,29,22,13,88,73,53,29.41,29.29,31,6,31,0.09
2013-11-27,28,23,18,17,12,6,78,62,44,29.55,29.36,21,9,21,0.00
2013-11-28,36,28,22,19,12,8,66,52,37,29.76,29.48,17,4,17,0.00
2013-11-29,38,29,20,22,17,12,75,61,44,29.92,29.72,11,2,11,0.00
2013-11-30,52,38,28,30,26,20,77,62,43,29.72,29.37,13,3,13,0.00
2013-12-1,46,35,28,38,31,24,97,85,71,29.40,29.27,12,2,12,0.00
2013-12-2,45,36,28,35,30,26,98,80,50,29.28,29.08,11,2,11,0.08
2013-12-3,51,44,36,49,43,35,99,96,88,29.09,29.01,9,3,9,0.00
2013-12-4,58,52,45,58,51,43,99,97,87,29.09,28.87,21,4,21,0.02
2013-12-5,47,30,24,43,21,11,88,69,55,29.54,26.93,25,8,25,0.00
2013-12-6,25,22,16,15,10,3,67,60,52,29.79,29.50,15,7,15,0.00
2013-12-7,21,15,11,7,4,0,80,60,46,29.95,29.79,14,5,14,0.00
2013-12-8,26,22,12,24,15,7,91,74,57,29.86,29.24,15,4,17,0.00
2013-12-9,27,20,6,24,10,-10,91,65,43,29.53,29.23,21,8,21,0.00
2013-12-10,25,13,-2,8,-2,-14,66,51,44,29.59,29.34,27,7,27,0.13
2013-12-11,23,16,2,14,3,-13,77,59,35,29.85,29.57,16,6,16,0.00
2013-12-12,22,9,-6,8,-4,-17,76,55,39,29.84,29.52,17,3,17,0.00
2013-12-13,30,21,10,25,12,2,88,69,51,29.52,29.40,10,2,10,0.00
2013-12-14,29,27,26,26,24,21,92,86,77,29.41,29.16,20,7,20,0.00
2013-12-15,27,16,11,21,6,1,82,64,52,29.41,29.23,18,8,18,0.00
2013-12-16,26,18,9,17,9,2,87,69,48,29.44,29.31,8,2,8,0.00
2013-12-17,32,24,17,24,18,12,87,75,55,29.38,29.25,22,6,22,0.00
2013-12-18,37,26,13,30,13,5,74,60,47,29.49,29.17,16,5,16,0.00
2013-12-19,47,39,33,37,34,28,95,82,65,29.26,29.14,12,2,12,0.00
2013-12-20,38,32,0,37,37,37,95,79,95,29.93,29.14,0,0,0,0.00
2013-12-21,36,23,0,37,35,32,98,63,94,29.99,29.65,17,4,17,0.50
2013-12-22,36,33,27,34,31,21,98,94,78,30.25,29.70,16,3,16,0.08
2013-12-23,27,18,1,22,9,-10,83,69,49,30.58,30.25,0,0,0,0.01
2013-12-24,20,10,0,9,-1,-12,73,60,51,30.68,30.53,0,0,0,0.00
2013-12-25,28,24,18,25,18,8,88,74,60,30.53,30.24,0,0,0,0.00
2013-12-26,34,27,15,27,18,7,81,69,57,30.46,30.24,8,2,8,0.00
2013-12-27,45,36,26,33,29,22,94,76,58,30.46,30.26,14,3,14,0.04
2013-12-28,52,41,32,36,32,28,86,72,54,30.27,30.03,15,4,15,0.00
2013-12-29,37,30,17,32,24,8,93,78,66,30.29,29.93,27,4,27,0.05
2013-12-30,20,14,7,9,3,-3,74,63,51,30.45,30.29,0,0,0,0.00
2013-12-31,18,12,5,12,3,-4,78,67,50,30.50,30.30,0,0,0,0.00
2014-1-1,20,18,14,12,11,8,78,74,65,30.41,30.28,17,4,17,0.00
2014-1-2,19,15,11,11,7,1,78,70,45,30.28,29.93,27,8,27,0.00